Location: LDNL
(36.4545°S, 141.6685°E)
Time: 05:04:34
(UTC+11:00)

A-11 Canister half - Pass Details

Date: 10 August 2022
Orbit: 1524 x 1684 km, 47.3° (Epoch: 05 October)

Event Time Altitude Azimuth Distance (km) Brightness Sun altitude
Rises 15:47:06 0° 351° (N) 4,715 12.3 21.6°
Reaches altitude 10° 15:50:58 10° 4° (N) 3,718 11.6 21.0°
Maximum altitude 15:57:55 24° 53° (NE) 2,769 10.4 19.9°
Drops below altitude 10° 16:04:49 10° 102° (ESE) 3,704 10.5 18.8°
Sets 16:08:36 0° 115° (ESE) 4,693 10.9 18.2°
